[[{"header":{"parameterUnit":"m.s-1","parameterCategory":2,"la1":30.2991,"la2":30.254,"lo1":-89.0895,"lo2":-89.0444,"dy":0.0017,"dx":0.0017,"nx":28,"ny":28,"refTime":"2024-04-12T03:00:00:Z","depth":"0","parameterNumber":2,"parameterNumberName":"U-component_of_CURRENTS"},"data":[0,0,0,0,0,0,0,0,0,0,0,0,0,0,0,0,0,0,0,0,0,0,0,0,0,0,0,0,0,0,0,0,0,0,0,0,0,0,0,0,0,0,0,0,0,0,0,0,0,0,0,0,0,0,0,0,0,0,-0.2847,-0.2847,0,-0.2821,-0.2821,-0.282,-0.2784,-0.2784,-0.2783,-0.2783,-0.2719,-0.2718,-0.2717,0,0,0,0,0,0,0,0,0,0,0,0,0,-0.2927,-0.2925,-0.2847,-0.2847,-0.2847,-0.2821,-0.2821,-0.282,-0.2784,-0.2784,-0.2783,-0.2783,-0.272,-0.2718,-0.2716,0,0,0,0,0,0,0,0,0,0,0,0,0,-0.2893,-0.2925,-0.2847,-0.2828,-0.2826,-0.2821,-0.2821,-0.282,-0.2784,-0.2784,-0.2783,-0.2782,-0.272,-0.2718,-0.2716,-0.2715,0,0,-0.271,-0.2709,0,0,0,0,0,0,0,0,-0.2895,-0.289,-0.2831,-0.2829,-0.2827,-0.2807,-0.2826,-0.2784,-0.2784,-0.2797,-0.2783,-0.2782,-0.2747,-0.2743,-0.2736,-0.2712,-0.2709,-0.271,-0.2709,-0.2708,-0.2707,0,0,0,0,0,0,0,-0.2897,-0.2891,-0.2834,-0.2831,-0.2829,-0.2842,-0.2835,-0.2818,-0.2773,-0.2796,-0.2794,-0.2795,-0.2746,-0.2738,-0.2735,-0.2709,-0.271,-0.2708,-0.2707,-0.2706,-0.2702,-0.2703,0,0,0,0,0,0,-0.2903,-0.2893,-0.2835,-0.2834,-0.2863,-0.2841,-0.2833,-0.2812,-0.2774,-0.2769,-0.2796,-0.2794,-0.2742,-0.2737,-0.2732,-0.2739,-0.2708,-0.2706,-0.2705,-0.2701,-0.2702,-0.2704,0,0,0,0,0,0,-0.2904,-0.2897,-0.2836,-0.2867,-0.286,-0.284,-0.2816,-0.2812,-0.2799,-0.2775,-0.2768,-0.2787,-0.2741,-0.2735,-0.2723,-0.2736,-0.2705,-0.2703,-0.27,-0.2701,-0.2703,-0.2746,0,0,0,0,0,0,-0.2906,-0.2897,-0.2874,-0.2866,-0.2858,-0.283,-0.2817,-0.2812,-0.2802,-0.2799,-0.2765,-0.2759,-0.274,-0.2726,-0.2721,-0.2733,-0.2702,-0.2698,-0.27,-0.2702,-0.2744,-0.2749,-0.2754,0,0,0,0,0,-0.2909,-0.2875,-0.2872,-0.2865,-0.2829,-0.283,-0.2827,-0.281,-0.2802,-0.2796,-0.2783,-0.2759,-0.2736,-0.2726,-0.2719,-0.273,-0.2697,-0.27,-0.2702,-0.2741,-0.2748,-0.2754,0,0,0,0,0,0,-0.2876,-0.2869,-0.2865,-0.2824,-0.2829,-0.2825,-0.2809,-0.2811,-0.2795,-0.2787,-0.2767,-0.276,-0.2757,-0.274,-0.2729,-0.2738,-0.2716,-0.2717,-0.2747,-0.2754,-0.2759,-0.2758,-0.27,0,0,0,0,0,-0.2865,-0.2844,-0.2849,-0.2814,-0.2818,-0.2817,-0.2812,-0.281,-0.2802,-0.2793,-0.2778,-0.2766,-0.2764,-0.2755,-0.2745,-0.2743,-0.2706,-0.275,-0.2756,-0.276,-0.2757,-0.2742,-0.2745,-0.2712,-0.2712,-0.2712,0,0,-0.2839,-0.2834,-0.2818,-0.2808,-0.2806,-0.2821,-0.281,-0.2804,-0.2819,-0.279,-0.2789,-0.2779,-0.2769,-0.2772,-0.277,-0.2757,-0.2742,-0.2763,-0.2767,-0.2761,-0.2745,-0.2748,-0.2751,-0.2713,-0.2713,-0.2713,0,0,-0.2803,-0.2779,-0.2767,-0.2783,-0.2793,-0.2804,-0.2807,-0.2813,-0.2813,-0.282,-0.2811,-0.2809,-0.2797,-0.2798,-0.2797,-0.2825,-0.2772,-0.2826,-0.2847,-0.2834,-0.2836,-0.2837,-0.2754,-0.2748,-0.2828,-0.2828,-0.2828,0,-0.2774,-0.2759,-0.2763,-0.2776,-0.2789,-0.2803,-0.2815,-0.2827,-0.283,-0.2835,-0.2823,-0.2824,-0.2812,-0.2828,-0.2843,-0.2836,-0.2797,-0.2822,-0.2839,-0.284,-0.2841,-0.2756,-0.2749,-0.283,-0.283,-0.283,-0.2829,0,-0.2751,-0.2749,-0.2744,-0.2771,-0.2788,-0.2794,-0.2832,-0.2845,-0.2851,-0.2862,-0.2872,-0.2862,-0.2861,-0.2867,-0.2862,-0.2874,-0.2831,-0.2848,-0.2819,-0.2847,-0.2755,-0.2747,-0.2833,-0.2833,-0.2832,-0.2831,0,0,-0.2654,-0.2717,-0.2713,-0.2741,-0.2788,-0.28,-0.2839,-0.2872,-0.2891,-0.2898,-0.2909,-0.2921,-0.2911,-0.291,-0.2906,-0.2899,-0.2861,-0.2879,-0.2877,-0.2788,-0.2777,-0.2649,-0.2627,-0.2886,-0.2886,-0.2886,-0.2695,0,-0.2632,-0.2663,-0.2701,-0.2737,-0.276,-0.2811,-0.285,-0.2887,-0.2905,-0.2922,-0.2926,-0.2931,-0.2931,-0.2926,-0.2925,-0.2889,-0.2848,-0.2908,-0.277,-0.2765,-0.2643,-0.2618,-0.2492,-0.2304,-0.2686,-0.2685,-0.2684,0,-0.2589,-0.2625,-0.2654,-0.2739,-0.2753,-0.2781,-0.2841,-0.2879,-0.2923,-0.2937,-0.2949,-0.2949,-0.2944,-0.2939,-0.2872,-0.2911,-0.2841,-0.2802,-0.2794,-0.2656,-0.2623,-0.2348,-0.2274,-0.2264,-0.267,-0.2671,-0.2672,0,-0.2512,-0.2586,-0.2608,-0.2635,-0.2733,-0.2756,-0.2806,-0.2866,-0.2898,-0.2934,-0.2943,-0.2947,-0.2928,-0.2884,-0.28,-0.2838,-0.2694,-0.2736,-0.2538,-0.2525,-0.238,-0.2355,-0.2274,-0.2663,-0.2663,-0.2664,-0.2665,0,-0.2463,-0.2479,-0.2576,-0.2589,-0.2625,-0.2713,-0.2747,-0.2801,-0.2867,-0.2882,-0.2934,-0.2914,-0.292,-0.2844,-0.2778,-0.2603,-0.2664,-0.2513,-0.2473,-0.2386,-0.2365,-0.2319,-0.2372,-0.2657,-0.2658,-0.266,-0.2661,0,-0.2352,-0.2421,-0.2451,-0.2553,-0.2584,-0.2601,-0.2708,-0.2738,-0.2816,-0.2833,-0.2842,-0.2874,-0.2763,-0.2711,-0.2601,-0.2541,-0.2352,-0.2325,-0.2183,-0.213,-0.196,-0.2021,-0.1896,-0.1843,-0.2085,-0.2081,-0.2077,0,-0.229,-0.2293,-0.2387,-0.2407,-0.2444,-0.2503,-0.2547,-0.2674,-0.2715,-0.2776,-0.277,-0.27,-0.2594,-0.238,-0.2248,-0.206,-0.2128,-0.1874,-0.1941,-0.1903,-0.1943,-0.2016,-0.1988,-0.1742,-0.1736,-0.1731,-0.1727,0,-0.2158,-0.2187,-0.2215,-0.2265,-0.2309,-0.2367,-0.2446,-0.248,-0.261,-0.2598,-0.2539,-0.2453,-0.2273,-0.2027,-0.1835,-0.1733,-0.1842,-0.1765,-0.1783,-0.1702,-0.172,-0.1663,-0.1884,-0.1683,-0.1688,-0.1691,-0.1693,-0.1695,-0.203,-0.2017,-0.2059,-0.2088,-0.2149,-0.2191,-0.2185,-0.2254,-0.2248,-0.2168,-0.2238,-0.1991,-0.1892,-0.1583,-0.1486,-0.133,-0.1459,-0.1311,-0.1388,-0.1465,-0.1424,-0.1509,-0.1247,-0.1249,-0.125,-0.1252,-0.1253,0,-0.1858,-0.1865,-0.1887,-0.1919,-0.1916,-0.2015,-0.2079,-0.2023,-0.1916,-0.1779,-0.1651,-0.1423,-0.126,-0.1194,-0.1086,-0.1003,-0.1026,-0.1002,-0.1109,-0.1099,-0.119,-0.1188,-0.0831,-0.0831,-0.0831,-0.0831,-0.0831,-0.0832,-0.1766,-0.1715,-0.1732,-0.1662,-0.1693,-0.1646,-0.1643,-0.1538,-0.1412,-0.1067,-0.0827,-0.0712,-0.0832,-0.1018,-0.0972,-0.0912,-0.0946,-0.088,-0.0962,-0.1073,-0.1111,-0.1146,-0.1155,-0.0798,-0.0798,-0.0805,-0.0806,-0.0806]},{"header":{"parameterUnit":"m.s-1","parameterCategory":2,"la1":30.2991,"la2":30.254,"lo1":-89.0895,"lo2":-89.0444,"dy":0.0017,"dx":0.0017,"nx":28,"ny":28,"refTime":"2024-04-12T03:00:00:Z","depth":"0","parameterNumber":3,"parameterNumberName":"V-component_of_CURRENTS"},"data":[0,0,0,0,0,0,0,0,0,0,0,0,0,0,0,0,0,0,0,0,0,0,0,0,0,0,0,0,0,0,0,0,0,0,0,0,0,0,0,0,0,0,0,0,0,0,0,0,0,0,0,0,0,0,0,0,0,0,-0.0582,-0.058,0,-0.0465,-0.0464,-0.0463,-0.0397,-0.0396,-0.0396,-0.0396,-0.0244,-0.0241,-0.0237,0,0,0,0,0,0,0,0,0,0,0,0,0,-0.0733,-0.073,-0.0582,-0.058,-0.0579,-0.0465,-0.0464,-0.0462,-0.0397,-0.0396,-0.0396,-0.0396,-0.0246,-0.0241,-0.0237,0,0,0,0,0,0,0,0,0,0,0,0,0,-0.0647,-0.073,-0.0582,-0.0532,-0.0526,-0.0466,-0.0464,-0.0462,-0.0397,-0.0396,-0.0396,-0.0396,-0.0247,-0.0242,-0.0236,-0.0208,0,0,-0.0218,-0.0216,0,0,0,0,0,0,0,0,-0.0652,-0.0642,-0.0541,-0.0535,-0.0529,-0.0445,-0.0461,-0.0375,-0.0397,-0.0446,-0.0396,-0.0396,-0.0308,-0.0297,-0.0277,-0.0201,-0.0195,-0.0218,-0.0214,-0.0212,-0.021,0,0,0,0,0,0,0,-0.0658,-0.0646,-0.0536,-0.0539,-0.0532,-0.0511,-0.0498,-0.0445,-0.038,-0.0442,-0.0437,-0.0424,-0.0305,-0.0283,-0.0273,-0.0192,-0.0218,-0.0213,-0.021,-0.0207,-0.0079,-0.0079,0,0,0,0,0,0,-0.0673,-0.0652,-0.0539,-0.0532,-0.0591,-0.0508,-0.0494,-0.0472,-0.0381,-0.0367,-0.0424,-0.0421,-0.0293,-0.028,-0.0268,-0.0234,-0.0212,-0.0207,-0.0203,-0.0079,-0.0079,-0.0079,0,0,0,0,0,0,-0.0676,-0.0663,-0.0544,-0.059,-0.0573,-0.0506,-0.0482,-0.047,-0.0446,-0.0368,-0.0353,-0.0412,-0.0292,-0.0276,-0.0223,-0.0227,-0.0204,-0.0199,-0.0079,-0.0079,-0.0079,-0.0163,0,0,0,0,0,0,-0.0681,-0.0665,-0.0655,-0.059,-0.0571,-0.0515,-0.0482,-0.0468,-0.0439,-0.0434,-0.0353,-0.0339,-0.0291,-0.0232,-0.0217,-0.0219,-0.0195,-0.0079,-0.0079,-0.0079,-0.016,-0.0166,-0.0171,0,0,0,0,0,-0.0687,-0.0673,-0.0655,-0.0642,-0.0559,-0.0515,-0.0504,-0.0455,-0.0439,-0.0432,-0.0378,-0.0341,-0.0222,-0.0227,-0.021,-0.021,-0.0079,-0.0079,-0.0079,-0.0158,-0.0165,-0.0171,0,0,0,0,0,0,-0.0723,-0.0663,-0.0642,-0.0608,-0.057,-0.0504,-0.0491,-0.046,-0.0412,-0.0407,-0.0337,-0.0319,-0.0277,-0.023,-0.0238,-0.0173,-0.0146,-0.0142,-0.0211,-0.0217,-0.0222,-0.0239,-0.019,0,0,0,0,0,-0.073,-0.071,-0.0651,-0.0626,-0.061,-0.0553,-0.053,-0.0499,-0.0448,-0.0427,-0.0373,-0.0314,-0.0264,-0.0231,-0.0181,-0.0141,-0.0077,-0.0131,-0.0136,-0.0141,-0.0142,-0.005,-0.0047,-0.0079,-0.0079,-0.0079,0,0,-0.0737,-0.0702,-0.069,-0.0634,-0.06,-0.0587,-0.0538,-0.0508,-0.0497,-0.0417,-0.0386,-0.0331,-0.0258,-0.0218,-0.0195,-0.0179,-0.0097,-0.0141,-0.0146,-0.0144,-0.0049,-0.0046,-0.0043,-0.0079,-0.0079,-0.0079,0,0,-0.0758,-0.0714,-0.0714,-0.0689,-0.0646,-0.0611,-0.0607,-0.0549,-0.0522,-0.0484,-0.0428,-0.0373,-0.03,-0.0245,-0.0208,-0.0209,-0.0132,-0.0198,-0.0231,-0.0142,-0.0139,-0.0135,-0.005,-0.0037,-0.0197,-0.0197,-0.0197,0,-0.0774,-0.076,-0.0708,-0.0708,-0.0694,-0.0629,-0.0635,-0.0596,-0.053,-0.0505,-0.0488,-0.0368,-0.0311,-0.0247,-0.0253,-0.0221,-0.016,-0.0217,-0.0149,-0.0144,-0.0139,-0.0052,-0.0037,-0.0201,-0.02,-0.02,-0.02,0,-0.0799,-0.0793,-0.0792,-0.0773,-0.075,-0.0742,-0.0689,-0.0663,-0.0624,-0.0577,-0.0512,-0.0429,-0.0353,-0.0332,-0.0294,-0.0231,-0.0196,-0.0171,-0.0137,-0.014,-0.0049,-0.0032,-0.0207,-0.0205,-0.0204,-0.0203,0,0,-0.0826,-0.0817,-0.0817,-0.0831,-0.0787,-0.0774,-0.0752,-0.0708,-0.0685,-0.0618,-0.0575,-0.0492,-0.0435,-0.0389,-0.0325,-0.0254,-0.0166,-0.0207,-0.0201,-0.013,0.0033,0.0059,0.0081,-0.013,-0.0127,-0.0126,0.0081,0,-0.0868,-0.0901,-0.0872,-0.0899,-0.0913,-0.0854,-0.0839,-0.0787,-0.0726,-0.0666,-0.0565,-0.0504,-0.0458,-0.0421,-0.0341,-0.0208,-0.0126,-0.0224,0.0032,0.004,0.0059,0.0099,0.0143,0.0331,0.0098,0.0101,0.0103,0,-0.0906,-0.0926,-0.0968,-0.0974,-0.0971,-0.0971,-0.0927,-0.0904,-0.0799,-0.0746,-0.0655,-0.0568,-0.0451,-0.0416,-0.0185,-0.025,-0.012,-0.0017,-0.0006,0.0059,0.0097,0.0299,0.0371,0.0508,0.013,0.0128,0.0126,0,-0.0967,-0.0991,-0.1033,-0.1035,-0.1025,-0.1026,-0.101,-0.093,-0.0902,-0.0791,-0.0739,-0.0592,-0.0494,-0.0331,-0.0124,-0.0147,0.014,0.0143,0.0294,0.0298,0.0407,0.0416,0.0637,0.0311,0.0311,0.031,0.0309,0,-0.1025,-0.1056,-0.1069,-0.1094,-0.1133,-0.1095,-0.1098,-0.1054,-0.0969,-0.0907,-0.0786,-0.0685,-0.0467,-0.0278,-0.0114,0.0151,0.0161,0.0304,0.0359,0.0378,0.0381,0.0561,0.0603,0.0318,0.0316,0.0315,0.0313,0,-0.1081,-0.1092,-0.1145,-0.116,-0.1168,-0.1194,-0.1174,-0.1162,-0.1072,-0.0979,-0.0946,-0.073,-0.0472,-0.0249,0.0054,0.0182,0.0513,0.0499,0.0499,0.0549,0.0777,0.0811,0.1074,0.1185,0.0695,0.0697,0.0699,0,-0.1113,-0.1148,-0.1202,-0.1241,-0.1253,-0.128,-0.129,-0.1228,-0.1187,-0.0986,-0.0931,-0.0676,-0.0439,-0.0006,0.0256,0.0563,0.0655,0.075,0.0705,0.0813,0.0894,0.0896,0.097,0.083,0.0833,0.0835,0.0837,0,-0.1169,-0.1187,-0.1232,-0.1314,-0.1352,-0.1385,-0.1376,-0.1346,-0.1222,-0.1076,-0.0826,-0.0623,-0.0214,0.0172,0.052,0.0683,0.0848,0.08,0.0939,0.1039,0.1035,0.116,0.066,0.0855,0.0854,0.0852,0.0851,0.085,-0.1198,-0.125,-0.1308,-0.1379,-0.1429,-0.1444,-0.1402,-0.1303,-0.1164,-0.0816,-0.0703,-0.0245,0.0102,0.062,0.0795,0.1113,0.1054,0.1193,0.1235,0.1234,0.131,0.0832,0.1058,0.1058,0.1057,0.1056,0.1056,0,-0.1226,-0.1283,-0.1364,-0.1439,-0.1486,-0.1499,-0.1418,-0.1267,-0.0994,-0.063,-0.0288,0.0294,0.0696,0.1017,0.1383,0.1543,0.1579,0.1602,0.1637,0.1703,0.1327,0.1299,0.1555,0.1555,0.1555,0.1555,0.1555,0.1555,-0.1245,-0.1321,-0.1367,-0.1453,-0.15,-0.1464,-0.1378,-0.1049,-0.0722,-0.0072,0.0423,0.0751,0.1081,0.1539,0.1879,0.1913,0.2084,0.203,0.2132,0.1872,0.1837,0.1803,0.1788,0.2143,0.2144,0.2506,0.251,0.2512]}],[{"header":{"parameterUnit":"m.s-1","parameterCategory":2,"la1":30.2991,"la2":30.254,"lo1":-89.0895,"lo2":-89.0444,"dy":0.0017,"dx":0.0017,"nx":28,"ny":28,"refTime":"2024-04-12T03:00:00:Z","depth":"2","parameterNumber":2,"parameterNumberName":"U-component_of_CURRENTS"},"data":[0,0,0,0,0,0,0,0,0,0,0,0,0,0,0,0,0,0,0,0,0,0,0,0,0,0,0,0,0,0,0,0,0,0,0,0,0,0,0,0,0,0,0,0,0,0,0,0,0,0,0,0,0,0,0,0,0,0,-0.2608,-0.2608,0,-0.2597,-0.2596,-0.2596,-0.2571,-0.257,-0.257,-0.257,-0.2531,-0.2531,-0.253,0,0,0,0,0,0,0,0,0,0,0,0,0,-0.2615,-0.2615,-0.2608,-0.2608,-0.2609,-0.2597,-0.2596,-0.2596,-0.2571,-0.257,-0.257,-0.257,-0.2532,-0.2531,-0.253,0,0,0,0,0,0,0,0,0,0,0,0,0,-0.2606,-0.2614,-0.2608,-0.2596,-0.2595,-0.2597,-0.2596,-0.2596,-0.2571,-0.257,-0.257,-0.257,-0.2532,-0.2531,-0.253,-0.2531,0,0,-0.2526,-0.2526,0,0,0,0,0,0,0,0,-0.2606,-0.2605,-0.2598,-0.2597,-0.2596,-0.2587,-0.2585,-0.2574,-0.2571,-0.2577,-0.257,-0.2569,-0.255,-0.2547,-0.2542,-0.2529,-0.2527,-0.2526,-0.2525,-0.2525,-0.2525,0,0,0,0,0,0,0,-0.2607,-0.2606,-0.2601,-0.2598,-0.2597,-0.2594,-0.2592,-0.2582,-0.2563,-0.2577,-0.2576,-0.2579,-0.2548,-0.2543,-0.2541,-0.2527,-0.2526,-0.2525,-0.2524,-0.2524,-0.2533,-0.2534,0,0,0,0,0,0,-0.2614,-0.2606,-0.2601,-0.2601,-0.2603,-0.2594,-0.2592,-0.2588,-0.2564,-0.2561,-0.2579,-0.2578,-0.2546,-0.2543,-0.254,-0.2556,-0.2525,-0.2524,-0.2523,-0.2532,-0.2533,-0.2534,0,0,0,0,0,0,-0.2614,-0.2613,-0.2602,-0.2606,-0.2605,-0.2595,-0.2591,-0.2588,-0.2586,-0.2567,-0.2562,-0.258,-0.2545,-0.2541,-0.2539,-0.2554,-0.2523,-0.2522,-0.2531,-0.2533,-0.2534,-0.2578,0,0,0,0,0,0,-0.2614,-0.2613,-0.2609,-0.2606,-0.2605,-0.2605,-0.2591,-0.2588,-0.2589,-0.2587,-0.2566,-0.2561,-0.2545,-0.2541,-0.2537,-0.2551,-0.2521,-0.253,-0.2532,-0.2533,-0.2575,-0.258,-0.2585,0,0,0,0,0,-0.2614,-0.2606,-0.2609,-0.2608,-0.26,-0.2605,-0.2604,-0.2594,-0.259,-0.259,-0.258,-0.2562,-0.255,-0.254,-0.2536,-0.255,-0.2529,-0.2531,-0.2533,-0.2573,-0.2579,-0.2585,0,0,0,0,0,0,-0.2599,-0.2603,-0.2605,-0.2597,-0.2605,-0.2602,-0.2596,-0.2599,-0.2592,-0.2587,-0.257,-0.2566,-0.2571,-0.2556,-0.2547,-0.256,-0.2538,-0.2539,-0.257,-0.2575,-0.258,-0.2579,-0.252,0,0,0,0,0,-0.2598,-0.2592,-0.2604,-0.2595,-0.2601,-0.2603,-0.2603,-0.2603,-0.2599,-0.2595,-0.2585,-0.2577,-0.2577,-0.2572,-0.2565,-0.257,-0.2536,-0.2578,-0.2583,-0.2588,-0.2585,-0.2563,-0.2566,-0.2541,-0.2541,-0.2541,0,0,-0.2587,-0.259,-0.2585,-0.2592,-0.2593,-0.2608,-0.26,-0.2603,-0.2616,-0.2592,-0.2599,-0.2592,-0.2582,-0.2589,-0.259,-0.2578,-0.2572,-0.259,-0.2594,-0.2589,-0.2566,-0.2568,-0.257,-0.2543,-0.2542,-0.2542,0,0,-0.257,-0.257,-0.2566,-0.2582,-0.2595,-0.2603,-0.261,-0.2618,-0.2621,-0.2632,-0.2623,-0.2625,-0.2621,-0.2618,-0.2617,-0.2645,-0.26,-0.2648,-0.2669,-0.2649,-0.265,-0.2651,-0.2588,-0.2583,-0.265,-0.265,-0.265,0,-0.2558,-0.2559,-0.2566,-0.258,-0.2592,-0.2607,-0.262,-0.2632,-0.2639,-0.2644,-0.2638,-0.2642,-0.2634,-0.2646,-0.266,-0.2655,-0.2622,-0.2647,-0.2654,-0.2655,-0.2655,-0.259,-0.2583,-0.2652,-0.2652,-0.2652,-0.2651,0,-0.2548,-0.2558,-0.2558,-0.2583,-0.26,-0.261,-0.264,-0.2655,-0.2665,-0.2674,-0.2686,-0.2679,-0.2679,-0.2686,-0.2683,-0.269,-0.2657,-0.2663,-0.2636,-0.266,-0.2589,-0.2582,-0.2655,-0.2655,-0.2654,-0.2653,0,0,-0.2486,-0.2541,-0.2539,-0.2561,-0.2604,-0.2614,-0.2649,-0.2677,-0.2692,-0.2705,-0.2714,-0.273,-0.2724,-0.2723,-0.272,-0.271,-0.2681,-0.2692,-0.269,-0.2623,-0.2601,-0.2492,-0.2472,-0.2691,-0.269,-0.269,-0.2543,0,-0.2472,-0.2501,-0.2533,-0.2564,-0.2584,-0.2626,-0.2657,-0.2689,-0.2708,-0.2721,-0.2727,-0.2733,-0.274,-0.2738,-0.2734,-0.27,-0.2668,-0.2718,-0.2594,-0.2589,-0.2485,-0.2463,-0.229,-0.2138,-0.2535,-0.2534,-0.2533,0,-0.2441,-0.2472,-0.25,-0.2565,-0.2576,-0.26,-0.2646,-0.2677,-0.2714,-0.2728,-0.2742,-0.2744,-0.2742,-0.274,-0.2683,-0.2715,-0.2659,-0.2625,-0.2619,-0.2497,-0.2467,-0.2184,-0.2109,-0.252,-0.2521,-0.2522,-0.2523,0,-0.2382,-0.2442,-0.2463,-0.2485,-0.2561,-0.258,-0.2618,-0.2668,-0.2692,-0.2725,-0.2731,-0.2737,-0.2719,-0.2684,-0.2621,-0.2652,-0.2529,-0.2559,-0.2396,-0.2386,-0.2202,-0.2176,-0.2497,-0.2497,-0.2497,-0.2498,-0.2498,0,-0.2346,-0.2359,-0.2438,-0.245,-0.2474,-0.2545,-0.2568,-0.2612,-0.2664,-0.2664,-0.2723,-0.2697,-0.2708,-0.2646,-0.2599,-0.2454,-0.2502,-0.2378,-0.2342,-0.221,-0.2188,-0.2503,-0.2506,-0.2492,-0.2493,-0.2494,-0.2495,0,-0.2258,-0.2318,-0.2342,-0.2421,-0.2444,-0.2455,-0.2533,-0.2551,-0.2619,-0.2617,-0.2625,-0.2654,-0.2561,-0.2533,-0.2441,-0.2393,-0.2289,-0.222,-0.2042,-0.1988,-0.2163,-0.217,-0.2029,-0.2024,-0.202,-0.2016,-0.2013,0,-0.2211,-0.2216,-0.229,-0.2303,-0.2332,-0.2372,-0.2398,-0.25,-0.2515,-0.2556,-0.2532,-0.2485,-0.2385,-0.2222,-0.2117,-0.1978,-0.2109,-0.1773,-0.1814,-0.2136,-0.2116,-0.213,-0.2142,-0.1572,-0.1566,-0.156,-0.1556,0,-0.2105,-0.2131,-0.2153,-0.2182,-0.2211,-0.2244,-0.2288,-0.2297,-0.2384,-0.2383,-0.2317,-0.2246,-0.2087,-0.1861,-0.1724,-0.1639,-0.1794,-0.1661,-0.2022,-0.1732,-0.1697,-0.1681,-0.1709,-0.151,-0.1514,-0.1518,-0.152,-0.1522,-0.2002,-0.1991,-0.2021,-0.2031,-0.2069,-0.2074,-0.203,-0.2092,-0.2078,-0.2023,-0.2049,-0.1875,-0.1796,-0.1468,-0.1353,-0.1286,-0.142,-0.139,-0.141,-0.1434,-0.1422,-0.1383,-0.1131,-0.1134,-0.1136,-0.1137,-0.1139,0,-0.1858,-0.1862,-0.1869,-0.187,-0.1839,-0.1918,-0.1912,-0.1823,-0.1732,-0.1746,-0.1656,-0.137,-0.12,-0.1144,-0.0947,-0.0906,-0.0933,-0.0891,-0.0942,-0.0986,-0.1026,-0.0999,-0.0593,-0.0592,-0.059,-0.0589,0,0,-0.1783,-0.1734,-0.1738,-0.1629,-0.1625,-0.1493,-0.1444,-0.1363,-0.1313,-0.1193,-0.1118,-0.1148,-0.1101,-0.0857,-0.0784,-0.0667,-0.0833,-0.0625,-0.1055,-0.1159,-0.1198,-0.129,-0.1294,0,0,0,0,0]},{"header":{"parameterUnit":"m.s-1","parameterCategory":2,"la1":30.2991,"la2":30.254,"lo1":-89.0895,"lo2":-89.0444,"dy":0.0017,"dx":0.0017,"nx":28,"ny":28,"refTime":"2024-04-12T03:00:00:Z","depth":"2","parameterNumber":3,"parameterNumberName":"V-component_of_CURRENTS"},"data":[0,0,0,0,0,0,0,0,0,0,0,0,0,0,0,0,0,0,0,0,0,0,0,0,0,0,0,0,0,0,0,0,0,0,0,0,0,0,0,0,0,0,0,0,0,0,0,0,0,0,0,0,0,0,0,0,0,0,-0.0397,-0.0396,0,-0.0286,-0.0285,-0.0284,-0.0226,-0.0226,-0.0226,-0.0226,-0.0083,-0.008,-0.0076,0,0,0,0,0,0,0,0,0,0,0,0,0,-0.0515,-0.0513,-0.0397,-0.0396,-0.0395,-0.0287,-0.0285,-0.0284,-0.0227,-0.0226,-0.0226,-0.0226,-0.0085,-0.008,-0.0076,0,0,0,0,0,0,0,0,0,0,0,0,0,-0.044,-0.0513,-0.0398,-0.0353,-0.0348,-0.0287,-0.0285,-0.0283,-0.0227,-0.0226,-0.0226,-0.0226,-0.0086,-0.0081,-0.0075,-0.0044,0,0,-0.0058,-0.0056,0,0,0,0,0,0,0,0,-0.0444,-0.0436,-0.0361,-0.0356,-0.035,-0.027,-0.0274,-0.0201,-0.0227,-0.0273,-0.0226,-0.0226,-0.0143,-0.0133,-0.0113,-0.0037,-0.0031,-0.0058,-0.0054,-0.0052,-0.005,0,0,0,0,0,0,0,-0.045,-0.044,-0.0354,-0.0359,-0.0353,-0.0323,-0.0313,-0.026,-0.021,-0.0269,-0.0264,-0.0252,-0.014,-0.0118,-0.0109,-0.0029,-0.0058,-0.0053,-0.0049,-0.0047,0.0085,0.0085,0,0,0,0,0,0,-0.0465,-0.0445,-0.0357,-0.035,-0.0398,-0.0321,-0.031,-0.0296,-0.0211,-0.0198,-0.0252,-0.0249,-0.0128,-0.0116,-0.0104,-0.0066,-0.0052,-0.0047,-0.0044,0.0085,0.0085,0.0085,0,0,0,0,0,0,-0.0468,-0.0458,-0.0362,-0.0395,-0.0381,-0.032,-0.0304,-0.0294,-0.0273,-0.0198,-0.0185,-0.0242,-0.0127,-0.0111,-0.0059,-0.006,-0.0044,-0.0039,0.0085,0.0085,0.0085,0.0013,0,0,0,0,0,0,-0.0472,-0.046,-0.0457,-0.0396,-0.0379,-0.0332,-0.0304,-0.0292,-0.0265,-0.0261,-0.0185,-0.0172,-0.0126,-0.0068,-0.0053,-0.0052,-0.0035,0.0084,0.0085,0.0085,0.0015,0.0011,0.0007,0,0,0,0,0,-0.0477,-0.0471,-0.0458,-0.0447,-0.0377,-0.0333,-0.0322,-0.0277,-0.0265,-0.0258,-0.0207,-0.0174,-0.0056,-0.0063,-0.0046,-0.0043,0.0084,0.0085,0.0085,0.0017,0.0011,0.0007,0,0,0,0,0,0,-0.0517,-0.0463,-0.0447,-0.0425,-0.0387,-0.0323,-0.0311,-0.0283,-0.0237,-0.0233,-0.0167,-0.015,-0.0107,-0.0063,-0.0073,-0.0004,0.0018,0.0022,-0.0039,-0.0044,-0.0048,-0.0062,-0.003,0,0,0,0,0,-0.0527,-0.0511,-0.0456,-0.0441,-0.0425,-0.0371,-0.0348,-0.032,-0.027,-0.025,-0.0198,-0.0142,-0.0091,-0.006,-0.0011,0.0032,0.0081,0.0044,0.004,0.0036,0.0037,0.0108,0.011,0.0087,0.0087,0.0087,0,0,-0.0539,-0.0507,-0.0498,-0.0449,-0.0417,-0.0398,-0.0357,-0.0328,-0.0311,-0.0241,-0.0206,-0.0155,-0.0085,-0.0042,-0.0018,-0.0004,0.0069,0.0037,0.0033,0.0036,0.0109,0.0111,0.0113,0.0087,0.0087,0.0087,0,0,-0.0558,-0.0528,-0.0525,-0.0498,-0.0455,-0.042,-0.0417,-0.0359,-0.0333,-0.0292,-0.0241,-0.019,-0.0114,-0.0062,-0.0026,-0.002,0.004,-0.0008,-0.0032,0.0036,0.0039,0.0041,0.0103,0.0111,-0.0005,-0.0005,-0.0005,0,-0.0577,-0.0563,-0.0518,-0.051,-0.0493,-0.0437,-0.0434,-0.0396,-0.033,-0.0307,-0.0293,-0.0177,-0.0122,-0.0057,-0.0059,-0.0029,0.0017,-0.0023,0.003,0.0034,0.0038,0.01,0.0111,-0.0009,-0.0008,-0.0008,-0.0008,0,-0.0592,-0.0585,-0.0582,-0.0555,-0.0531,-0.0519,-0.0467,-0.0442,-0.0407,-0.0362,-0.03,-0.0222,-0.0153,-0.0129,-0.0091,-0.0036,-0.0011,0.001,0.0038,0.0036,0.0102,0.0114,-0.0014,-0.0012,-0.0011,-0.0011,0,0,-0.0628,-0.06,-0.0601,-0.0604,-0.0557,-0.0541,-0.0516,-0.047,-0.045,-0.0385,-0.0347,-0.0262,-0.0219,-0.0175,-0.0116,-0.0054,0.001,-0.0017,-0.0012,0.0035,0.0159,0.0174,0.019,0.0039,0.0041,0.0042,0.0191,0,-0.0658,-0.067,-0.0637,-0.0646,-0.065,-0.0596,-0.0577,-0.0528,-0.0475,-0.0424,-0.0334,-0.0278,-0.0235,-0.0204,-0.0136,-0.0025,0.004,-0.0033,0.0162,0.0168,0.0175,0.0204,0.0175,0.0305,0.0204,0.0206,0.0208,0,-0.0687,-0.0692,-0.0713,-0.0701,-0.0696,-0.069,-0.065,-0.0623,-0.0535,-0.0491,-0.0415,-0.0341,-0.024,-0.0208,-0.002,-0.007,0.0034,0.0121,0.0129,0.0178,0.0206,0.0294,0.0332,0.0229,0.0227,0.0226,0.0224,0,-0.0746,-0.0744,-0.0768,-0.0764,-0.0737,-0.0736,-0.0718,-0.0649,-0.0623,-0.0532,-0.0493,-0.0368,-0.0291,-0.0157,0.0016,0.0001,0.0229,0.0234,0.035,0.0352,0.0384,0.0386,0.0369,0.0368,0.0368,0.0368,0.0367,0,-0.0793,-0.0812,-0.0803,-0.0818,-0.0844,-0.08,-0.0802,-0.0761,-0.0691,-0.064,-0.0537,-0.0456,-0.0273,-0.0121,0.0016,0.0225,0.0234,0.0356,0.0397,0.0357,0.0355,0.0332,0.0326,0.0373,0.0372,0.0371,0.037,0,-0.0853,-0.0847,-0.0878,-0.0873,-0.0876,-0.0896,-0.0872,-0.0861,-0.0786,-0.0714,-0.0686,-0.0507,-0.0299,-0.0112,0.0135,0.0238,0.0423,0.0495,0.0431,0.046,0.0499,0.0487,0.0635,0.0637,0.0639,0.064,0.0641,0,-0.0884,-0.0906,-0.0932,-0.096,-0.0963,-0.0981,-0.0986,-0.0926,-0.089,-0.0726,-0.0682,-0.0476,-0.0293,0.0054,0.027,0.0515,0.0507,0.0609,0.0573,0.0504,0.0529,0.0515,0.0501,0.0593,0.0593,0.0594,0.0594,0,-0.094,-0.095,-0.0978,-0.1037,-0.1063,-0.108,-0.1067,-0.1042,-0.0931,-0.0833,-0.0638,-0.0482,-0.0144,0.0137,0.0421,0.0546,0.0558,0.0627,0.0605,0.0514,0.0472,0.0493,0.048,0.0599,0.0598,0.0598,0.0598,0.0598,-0.0979,-0.102,-0.1057,-0.1108,-0.1143,-0.1145,-0.113,-0.1066,-0.0975,-0.0783,-0.0627,-0.0364,-0.011,0.0312,0.0512,0.0667,0.0661,0.0685,0.0681,0.0676,0.0629,0.0591,0.0732,0.0732,0.0732,0.0732,0.0732,0,-0.1021,-0.1061,-0.112,-0.1172,-0.1207,-0.1205,-0.1156,-0.1095,-0.0954,-0.0762,-0.0558,-0.0231,0.0067,0.0317,0.0587,0.0746,0.0716,0.0746,0.0685,0.0679,0.0674,0.0624,0.0727,0.0728,0.0728,0.0729,0,0,-0.1045,-0.1108,-0.1137,-0.1204,-0.1234,-0.1209,-0.1163,-0.1048,-0.0894,-0.066,-0.0459,-0.0247,0.0085,0.0273,0.0476,0.0617,0.0593,0.061,0.0596,0.0492,0.0485,0.0621,0.0535,0,0,0,0,0]}],[{"header":{"parameterUnit":"m.s-1","parameterCategory":2,"la1":30.2991,"la2":30.254,"lo1":-89.0895,"lo2":-89.0444,"dy":0.0017,"dx":0.0017,"nx":28,"ny":28,"refTime":"2024-04-12T03:00:00:Z","depth":"4","parameterNumber":2,"parameterNumberName":"U-component_of_CURRENTS"},"data":[0,0,0,0,0,0,0,0,0,0,0,0,0,0,0,0,0,0,0,0,0,0,0,0,0,0,0,0,0,0,0,0,0,0,0,0,0,0,0,0,0,0,0,0,0,0,0,0,0,0,0,0,0,0,0,0,0,0,-0.1836,-0.1837,0,-0.1876,-0.1876,-0.1876,-0.1912,-0.1912,-0.1913,-0.1913,-0.1957,-0.1958,-0.1958,0,0,0,0,0,0,0,0,0,0,0,0,0,-0.1765,-0.1766,-0.1836,-0.1837,-0.1837,-0.1876,-0.1876,-0.1877,-0.1912,-0.1912,-0.1913,-0.1914,-0.1957,-0.1958,-0.1958,0,0,0,0,0,0,0,0,0,0,0,0,0,-0.1797,-0.1766,-0.1836,-0.1861,-0.1864,-0.1876,-0.1876,-0.1877,-0.1911,-0.1912,-0.1913,-0.1914,-0.1957,-0.1957,-0.1958,-0.1946,0,0,-0.1961,-0.1961,0,0,0,0,0,0,0,0,-0.1796,-0.18,-0.1857,-0.1859,-0.1863,-0.1892,-0.1867,-0.1901,-0.1911,-0.1891,-0.1913,-0.1914,-0.1936,-0.1939,-0.1941,-0.1948,-0.195,-0.1961,-0.1962,-0.1962,-0.1962,0,0,0,0,0,0,0,-0.1793,-0.1798,-0.185,-0.1857,-0.1861,-0.1862,-0.1867,-0.1873,-0.1907,-0.1893,-0.1896,-0.1904,-0.1938,-0.194,-0.1943,-0.195,-0.1961,-0.1962,-0.1963,-0.1963,-0.2032,-0.2033,0,0,0,0,0,0,-0.1793,-0.1796,-0.1849,-0.1851,-0.1833,-0.1863,-0.1869,-0.188,-0.1907,-0.1912,-0.1903,-0.1905,-0.1938,-0.1941,-0.1944,-0.2009,-0.1962,-0.1963,-0.1963,-0.203,-0.2032,-0.2033,0,0,0,0,0,0,-0.1791,-0.1798,-0.1847,-0.1826,-0.1833,-0.1863,-0.1875,-0.188,-0.1916,-0.1914,-0.192,-0.1938,-0.1939,-0.1943,-0.198,-0.2009,-0.1963,-0.1964,-0.2029,-0.2031,-0.2033,-0.209,0,0,0,0,0,0,-0.1789,-0.1797,-0.182,-0.1826,-0.1834,-0.1875,-0.1874,-0.188,-0.1918,-0.1923,-0.1946,-0.1949,-0.194,-0.1979,-0.1981,-0.2009,-0.1965,-0.2027,-0.203,-0.2032,-0.2086,-0.2093,-0.2099,0,0,0,0,0,-0.1787,-0.1805,-0.182,-0.1828,-0.1859,-0.1876,-0.188,-0.1903,-0.192,-0.1939,-0.1959,-0.195,-0.1996,-0.1981,-0.1983,-0.2012,-0.2026,-0.2029,-0.2032,-0.2083,-0.2092,-0.2099,0,0,0,0,0,0,-0.1789,-0.1811,-0.1828,-0.1855,-0.1877,-0.1883,-0.1906,-0.1922,-0.1952,-0.1967,-0.1966,-0.197,-0.2012,-0.2005,-0.1989,-0.2039,-0.2009,-0.2013,-0.2048,-0.2056,-0.2062,-0.2051,-0.1966,0,0,0,0,0,-0.18,-0.1821,-0.1841,-0.1867,-0.188,-0.1901,-0.1918,-0.1935,-0.1954,-0.197,-0.1988,-0.2005,-0.2019,-0.2034,-0.2043,-0.2071,-0.2035,-0.2091,-0.2098,-0.2104,-0.2097,-0.2074,-0.2077,-0.2043,-0.2043,-0.2043,0,0,-0.1808,-0.1824,-0.1838,-0.1869,-0.1888,-0.1911,-0.1914,-0.1947,-0.1975,-0.1969,-0.2021,-0.2031,-0.2032,-0.2064,-0.2082,-0.2067,-0.2094,-0.2107,-0.2112,-0.2102,-0.2077,-0.208,-0.2083,-0.2045,-0.2044,-0.2044,0,0,-0.182,-0.1851,-0.187,-0.1892,-0.1928,-0.194,-0.1958,-0.1988,-0.2014,-0.2056,-0.206,-0.2087,-0.2117,-0.2118,-0.2121,-0.2169,-0.2129,-0.2183,-0.2209,-0.2188,-0.219,-0.2191,-0.2141,-0.2137,-0.2187,-0.2187,-0.2187,0,-0.1832,-0.1857,-0.1879,-0.1903,-0.1925,-0.1957,-0.1983,-0.201,-0.2052,-0.207,-0.2084,-0.2126,-0.2136,-0.2158,-0.218,-0.2183,-0.2155,-0.2179,-0.2195,-0.2196,-0.2196,-0.2144,-0.2139,-0.219,-0.219,-0.2189,-0.2189,0,-0.1845,-0.1883,-0.1896,-0.1937,-0.1965,-0.1993,-0.203,-0.2068,-0.2106,-0.2125,-0.2171,-0.2184,-0.2202,-0.2219,-0.2217,-0.2234,-0.2206,-0.2204,-0.2171,-0.2203,-0.2146,-0.214,-0.2194,-0.2193,-0.2192,-0.2192,0,0,-0.182,-0.1892,-0.19,-0.1929,-0.1987,-0.2004,-0.2059,-0.2099,-0.2128,-0.2178,-0.2203,-0.2246,-0.2254,-0.2258,-0.2264,-0.2256,-0.224,-0.224,-0.2238,-0.2182,-0.2172,-0.2027,-0.2006,-0.2245,-0.2245,-0.2245,-0.2127,0,-0.1825,-0.1875,-0.191,-0.1964,-0.199,-0.204,-0.208,-0.2126,-0.2165,-0.2197,-0.2222,-0.225,-0.2269,-0.2282,-0.2282,-0.2251,-0.2229,-0.227,-0.2155,-0.2151,-0.2013,-0.1996,-0.2243,-0.2122,-0.212,-0.2119,-0.2119,0,-0.1814,-0.1852,-0.1906,-0.1974,-0.199,-0.203,-0.2091,-0.2131,-0.2182,-0.2211,-0.2247,-0.2262,-0.2274,-0.2281,-0.2239,-0.2267,-0.2224,-0.2194,-0.2189,-0.2026,-0.1995,-0.2086,-0.2107,-0.2108,-0.2109,-0.211,-0.211,0,-0.1764,-0.1841,-0.1886,-0.1912,-0.1995,-0.2032,-0.2076,-0.2137,-0.2164,-0.2218,-0.2231,-0.2256,-0.2255,-0.223,-0.2186,-0.2214,-0.2107,-0.2132,-0.1953,-0.1942,-0.2084,-0.2084,-0.2081,-0.2081,-0.2082,-0.2082,-0.2082,0,-0.1732,-0.177,-0.1873,-0.1898,-0.1941,-0.2011,-0.2056,-0.2104,-0.2159,-0.2154,-0.2234,-0.221,-0.2244,-0.2195,-0.2163,-0.2018,-0.2084,-0.1933,-0.1897,-0.2111,-0.2115,-0.2079,-0.208,-0.2077,-0.2078,-0.2079,-0.208,0,-0.1659,-0.1736,-0.1788,-0.1889,-0.1921,-0.195,-0.2036,-0.2054,-0.2128,-0.2119,-0.2133,-0.2168,-0.2088,-0.2084,-0.201,-0.1954,-0.1855,-0.1788,-0.1985,-0.1966,-0.171,-0.1717,-0.1571,-0.1565,-0.156,-0.1555,-0.1552,0,-0.162,-0.1646,-0.1761,-0.1788,-0.1838,-0.1898,-0.1926,-0.2022,-0.2023,-0.2052,-0.2015,-0.1987,-0.1978,-0.1747,-0.178,-0.1679,-0.1669,-0.1619,-0.1697,-0.1676,-0.1656,-0.1671,-0.1684,-0.1543,-0.1542,-0.1541,-0.1539,0,-0.1535,-0.1597,-0.164,-0.1693,-0.174,-0.1772,-0.1815,-0.1798,-0.186,-0.1953,-0.1826,-0.1768,-0.1664,-0.161,-0.1536,-0.148,-0.166,-0.1564,-0.1576,-0.1649,-0.1641,-0.1629,-0.1648,-0.1521,-0.1524,-0.1525,-0.1526,0,-0.1467,-0.1476,-0.1541,-0.1564,-0.1621,-0.1601,-0.165,-0.1619,-0.1631,-0.1668,-0.1606,-0.1578,-0.1609,-0.1499,-0.1431,-0.1363,-0.1358,-0.1341,-0.1365,-0.1385,-0.1384,-0.135,-0.1083,0,0,0,0,0,-0.1382,-0.1376,-0.1398,-0.1409,-0.1455,-0.1476,-0.1544,-0.1591,-0.1645,-0.1502,-0.1548,-0.1438,-0.1329,-0.1335,-0.1221,-0.1361,-0.1377,-0.1228,-0.1375,-0.142,-0.1441,-0.1461,0,0,0,0,0,0,-0.1325,-0.1351,-0.135,-0.1264,-0.1234,-0.1256,-0.1291,-0.1338,-0.1269,-0.1334,-0.1277,-0.1345,-0.1262,-0.1341,-0.118,-0.1182,-0.1246,-0.1235,-0.1231,-0.1408,-0.1427,-0.1444,-0.1471,0,0,0,0,0]},{"header":{"parameterUnit":"m.s-1","parameterCategory":2,"la1":30.2991,"la2":30.254,"lo1":-89.0895,"lo2":-89.0444,"dy":0.0017,"dx":0.0017,"nx":28,"ny":28,"refTime":"2024-04-12T03:00:00:Z","depth":"4","parameterNumber":3,"parameterNumberName":"V-component_of_CURRENTS"},"data":[0,0,0,0,0,0,0,0,0,0,0,0,0,0,0,0,0,0,0,0,0,0,0,0,0,0,0,0,0,0,0,0,0,0,0,0,0,0,0,0,0,0,0,0,0,0,0,0,0,0,0,0,0,0,0,0,0,0,-0.0261,-0.026,0,-0.0184,-0.0184,-0.0183,-0.0146,-0.0146,-0.0146,-0.0146,-0.0035,-0.0032,-0.0029,0,0,0,0,0,0,0,0,0,0,0,0,0,-0.0332,-0.0331,-0.0261,-0.026,-0.0259,-0.0185,-0.0184,-0.0183,-0.0146,-0.0146,-0.0146,-0.0146,-0.0036,-0.0033,-0.0029,0,0,0,0,0,0,0,0,0,0,0,0,0,-0.0283,-0.0331,-0.0261,-0.0232,-0.0229,-0.0185,-0.0184,-0.0182,-0.0146,-0.0146,-0.0146,-0.0146,-0.0037,-0.0033,-0.0029,0.0,0,0,-0.0015,-0.0013,0,0,0,0,0,0,0,0,-0.0286,-0.028,-0.0237,-0.0234,-0.023,-0.0175,-0.0168,-0.0119,-0.0146,-0.0177,-0.0146,-0.0146,-0.0079,-0.0071,-0.0057,0.0006,0.001,-0.0014,-0.0012,-0.001,-0.0009,0,0,0,0,0,0,0,-0.0289,-0.0283,-0.0231,-0.0236,-0.0232,-0.0208,-0.0201,-0.0158,-0.0128,-0.0175,-0.0172,-0.0163,-0.0077,-0.0061,-0.0054,0.0012,-0.0015,-0.0011,-0.0008,-0.0006,0.0104,0.0104,0,0,0,0,0,0,-0.0301,-0.0287,-0.0233,-0.0228,-0.0259,-0.0207,-0.0199,-0.0192,-0.0129,-0.012,-0.0163,-0.0162,-0.0069,-0.0059,-0.005,-0.0018,-0.001,-0.0006,-0.0003,0.0103,0.0104,0.0104,0,0,0,0,0,0,-0.0303,-0.0297,-0.0236,-0.0256,-0.0246,-0.0206,-0.0198,-0.0191,-0.0178,-0.0121,-0.0111,-0.0159,-0.0068,-0.0056,-0.0014,-0.0013,-0.0004,0.0001,0.0103,0.0104,0.0104,0.0049,0,0,0,0,0,0,-0.0305,-0.0298,-0.0301,-0.0257,-0.0246,-0.0216,-0.0198,-0.0189,-0.0173,-0.017,-0.0113,-0.0103,-0.0068,-0.0021,-0.001,-0.0007,0.0004,0.0103,0.0103,0.0104,0.005,0.0047,0.0045,0,0,0,0,0,-0.0308,-0.0308,-0.0302,-0.0295,-0.025,-0.0216,-0.0209,-0.018,-0.0173,-0.0168,-0.0129,-0.0105,-0.001,-0.0017,-0.0004,-0.0,0.0103,0.0103,0.0104,0.0052,0.0048,0.0045,0,0,0,0,0,0,-0.0339,-0.0303,-0.0295,-0.0285,-0.0257,-0.021,-0.0204,-0.0184,-0.015,-0.0149,-0.0098,-0.0085,-0.005,-0.0015,-0.0024,0.0033,0.0049,0.0052,0.0005,0.0002,-0.0001,-0.0014,0.0008,0,0,0,0,0,-0.0349,-0.0342,-0.0303,-0.0297,-0.0286,-0.0248,-0.0232,-0.0213,-0.0175,-0.0161,-0.0121,-0.0077,-0.0037,-0.0011,0.0028,0.0064,0.0097,0.0075,0.0072,0.0069,0.0068,0.0116,0.0117,0.0106,0.0106,0.0106,0,0,-0.036,-0.034,-0.0336,-0.0304,-0.0282,-0.0267,-0.0239,-0.0219,-0.0206,-0.0153,-0.0126,-0.0087,-0.0031,0.0005,0.0024,0.0035,0.0089,0.0069,0.0067,0.0067,0.0117,0.0118,0.0119,0.0106,0.0106,0.0106,0,0,-0.0376,-0.0362,-0.036,-0.0341,-0.0311,-0.0286,-0.0284,-0.0241,-0.0224,-0.0191,-0.0152,-0.0113,-0.0051,-0.001,0.002,0.0027,0.0068,0.0037,0.0019,0.0065,0.0067,0.0068,0.0105,0.011,0.0041,0.004,0.004,0,-0.0394,-0.0384,-0.0355,-0.0347,-0.0337,-0.0298,-0.0295,-0.0267,-0.0218,-0.0202,-0.0192,-0.0102,-0.0057,-0.0005,-0.0004,0.0021,0.0049,0.0024,0.0061,0.0063,0.0065,0.0103,0.0109,0.0038,0.0038,0.0038,0.0039,0,-0.0401,-0.0399,-0.0397,-0.0378,-0.0362,-0.0353,-0.0314,-0.0298,-0.0275,-0.0243,-0.0197,-0.0135,-0.0082,-0.006,-0.0028,0.0012,0.0027,0.0045,0.0065,0.0063,0.0103,0.0111,0.0034,0.0035,0.0036,0.0037,0,0,-0.0431,-0.0408,-0.0411,-0.0413,-0.0379,-0.0369,-0.035,-0.0319,-0.0309,-0.0259,-0.0235,-0.0163,-0.0133,-0.0098,-0.005,-0.0005,0.0036,0.0022,0.0026,0.0051,0.0132,0.011,0.0117,0.0058,0.0059,0.006,0.015,0,-0.045,-0.0455,-0.0432,-0.0439,-0.0439,-0.0405,-0.0392,-0.036,-0.0326,-0.0292,-0.0224,-0.0183,-0.0145,-0.0122,-0.0072,0.0008,0.0054,0.0009,0.0138,0.0142,0.0116,0.0125,0.0064,0.0156,0.0158,0.0159,0.016,0,-0.0467,-0.0468,-0.0483,-0.0477,-0.0474,-0.0473,-0.0454,-0.0435,-0.0377,-0.0349,-0.0294,-0.0238,-0.0164,-0.0134,-0.0002,-0.0035,0.0041,0.0104,0.011,0.0114,0.0134,0.0163,0.0175,0.0174,0.0173,0.0172,0.0171,0,-0.0508,-0.0506,-0.0525,-0.0522,-0.0505,-0.0511,-0.0502,-0.046,-0.0445,-0.0386,-0.0363,-0.027,-0.0217,-0.0118,0.0011,0.0004,0.0157,0.0168,0.0223,0.0223,0.0239,0.0236,0.0263,0.0263,0.0263,0.0262,0.0262,0,-0.0534,-0.0552,-0.0553,-0.0564,-0.0591,-0.0561,-0.0576,-0.055,-0.0506,-0.0475,-0.0401,-0.0346,-0.0209,-0.0102,0.0003,0.0133,0.0153,0.022,0.0246,0.0213,0.0207,0.0244,0.024,0.0266,0.0265,0.0264,0.0264,0,-0.0575,-0.0574,-0.0602,-0.0607,-0.0614,-0.0638,-0.0634,-0.0632,-0.0587,-0.0543,-0.0523,-0.0396,-0.0257,-0.0119,0.006,0.0123,0.0249,0.0295,0.0245,0.0266,0.0283,0.0276,0.0352,0.0352,0.0352,0.0352,0.0352,0,-0.0592,-0.0611,-0.0648,-0.0675,-0.0684,-0.071,-0.0722,-0.0685,-0.0663,-0.0559,-0.0528,-0.0392,-0.0294,-0.0062,0.0072,0.0255,0.0284,0.033,0.0307,0.0276,0.0293,0.0286,0.0279,0.0352,0.0352,0.0352,0.0352,0,-0.0627,-0.065,-0.0675,-0.0732,-0.0764,-0.0784,-0.0785,-0.0768,-0.0695,-0.066,-0.0512,-0.0382,-0.0222,-0.0052,0.0089,0.0223,0.0282,0.0331,0.0332,0.031,0.0277,0.0293,0.0286,0.0353,0.0352,0.0352,0.0352,0,-0.0659,-0.0693,-0.0735,-0.0778,-0.0825,-0.083,-0.0826,-0.0766,-0.0729,-0.0592,-0.054,-0.036,-0.0247,-0.0065,0.0069,0.0186,0.021,0.0229,0.0235,0.0236,0.0168,0.0106,0.0153,0,0,0,0,0,-0.0682,-0.0719,-0.0769,-0.0813,-0.0857,-0.087,-0.085,-0.0823,-0.0743,-0.0643,-0.0583,-0.0424,-0.0205,-0.0105,0.001,0.0047,0.0208,0.018,0.0226,0.0353,0.0353,0.0289,0,0,0,0,0,0,-0.0699,-0.0756,-0.0774,-0.0828,-0.0857,-0.0887,-0.0869,-0.0811,-0.0735,-0.0642,-0.0518,-0.0431,-0.0217,-0.0274,0.0001,0.0038,0.0074,0.0291,0.0293,0.0353,0.0353,0.0353,0.0287,0,0,0,0,0]}]]